Time,TemperatureF,DewpointF,PressureIn,WindDirection,WindDirectionDegrees,WindSpeedMPH,WindSpeedGustMPH,Humidity,HourlyPrecipIn,Conditions,Clouds,dailyrainin,SoftwareType,DateUTC
2013-07-09 00:07:00,52.0,44.0,30.58,NNW,340,7.0,8.0,73,-99.99,,,-99.99,,2013-07-09 06:07:00,
2013-07-09 00:12:00,52.0,44.0,30.58,NNW,340,4.0,8.0,73,-99.99,,,-99.99,,2013-07-09 06:12:00,
2013-07-09 00:22:00,52.0,44.0,30.58,NW,310,9.0,9.0,74,-99.99,,,-99.99,,2013-07-09 06:22:00,
2013-07-09 00:32:00,51.0,44.0,30.58,ENE,70,5.0,7.0,75,-99.99,,,-99.99,,2013-07-09 06:32:00,
2013-07-09 00:37:00,51.0,44.0,30.58,North,0,6.0,6.0,77,-99.99,,,-99.99,,2013-07-09 06:37:00,
2013-07-09 00:47:00,51.0,44.0,30.58,ENE,60,5.0,7.0,78,-99.99,,,-99.99,,2013-07-09 06:47:00,
2013-07-09 00:57:00,50.0,44.0,30.58,North,10,7.0,9.0,79,-99.99,,,-99.99,,2013-07-09 06:57:00,
2013-07-09 01:02:00,50.0,43.0,30.58,NNE,20,4.0,8.0,78,-99.99,,,-99.99,,2013-07-09 07:02:00,
2013-07-09 01:12:00,49.0,43.0,30.59,North,10,8.0,10.0,79,-99.99,,,-99.99,,2013-07-09 07:12:00,
2013-07-09 01:22:00,49.0,43.0,30.59,North,10,6.0,8.0,80,-99.99,,,-99.99,,2013-07-09 07:22:00,
2013-07-09 01:27:00,49.0,43.0,30.59,North,0,7.0,9.0,81,-99.99,,,-99.99,,2013-07-09 07:27:00,
2013-07-09 01:37:00,48.0,43.0,30.58,NNW,330,8.0,9.0,82,-99.99,,,-99.99,,2013-07-09 07:37:00,
2013-07-09 01:42:00,48.0,43.0,30.58,NW,310,7.0,9.0,81,-99.99,,,-99.99,,2013-07-09 07:42:00,
2013-07-09 01:47:00,48.0,43.0,30.58,NNW,330,8.0,9.0,82,-99.99,,,-99.99,,2013-07-09 07:47:00,
2013-07-09 01:57:00,48.0,43.0,30.58,NNW,340,5.0,9.0,82,-99.99,,,-99.99,,2013-07-09 07:57:00,
2013-07-09 02:07:00,48.0,43.0,30.58,NW,310,8.0,9.0,84,-99.99,,,-99.99,,2013-07-09 08:07:00,
2013-07-09 02:12:00,48.0,43.0,30.58,NNE,30,3.0,9.0,84,-99.99,,,-99.99,,2013-07-09 08:12:00,
2013-07-09 02:17:00,48.0,43.0,30.58,NNE,30,5.0,6.0,84,-99.99,,,-99.99,,2013-07-09 08:17:00,
2013-07-09 02:22:00,47.0,43.0,30.58,NNW,330,6.0,6.0,84,-99.99,,,-99.99,,2013-07-09 08:22:00,
2013-07-09 02:32:00,47.0,43.0,30.59,NNW,330,9.0,10.0,86,-99.99,,,-99.99,,2013-07-09 08:32:00,
2013-07-09 02:37:00,47.0,43.0,30.58,North,350,8.0,10.0,86,-99.99,,,-99.99,,2013-07-09 08:37:00,
2013-07-09 02:42:00,47.0,43.0,30.58,North,10,5.0,7.0,86,-99.99,,,-99.99,,2013-07-09 08:42:00,
2013-07-09 02:47:00,47.0,43.0,30.58,NNW,340,10.0,11.0,87,-99.99,,,-99.99,,2013-07-09 08:47:00,
2013-07-09 02:57:00,47.0,43.0,30.58,WNW,300,4.0,9.0,86,-99.99,,,-99.99,,2013-07-09 08:57:00,
2013-07-09 03:07:00,46.0,42.0,30.58,NNW,330,7.0,9.0,87,-99.99,,,-99.99,,2013-07-09 09:07:00,
2013-07-09 03:12:00,46.0,43.0,30.58,NNW,330,7.0,8.0,88,-99.99,,,-99.99,,2013-07-09 09:12:00,
2013-07-09 03:17:00,46.0,43.0,30.58,NNW,330,9.0,9.0,88,-99.99,,,-99.99,,2013-07-09 09:17:00,
2013-07-09 03:27:00,46.0,42.0,30.58,NNW,340,7.0,9.0,87,-99.99,,,-99.99,,2013-07-09 09:27:00,
2013-07-09 03:32:00,46.0,42.0,30.58,NNW,340,6.0,10.0,87,-99.99,,,-99.99,,2013-07-09 09:32:00,
2013-07-09 03:42:00,46.0,42.0,30.58,North,350,6.0,7.0,88,-99.99,,,-99.99,,2013-07-09 09:42:00,
2013-07-09 03:52:00,46.0,42.0,30.58,NE,40,3.0,6.0,87,-99.99,,,-99.99,,2013-07-09 09:52:00,
2013-07-09 03:57:00,45.0,42.0,30.58,NW,310,8.0,8.0,87,-99.99,,,-99.99,,2013-07-09 09:57:00,
2013-07-09 04:02:00,45.0,42.0,30.58,NNW,330,7.0,9.0,88,-99.99,,,-99.99,,2013-07-09 10:02:00,
2013-07-09 04:12:00,45.0,42.0,30.58,NNW,340,7.0,8.0,90,-99.99,,,-99.99,,2013-07-09 10:12:00,
2013-07-09 04:22:00,45.0,42.0,30.58,North,0,8.0,9.0,91,-99.99,,,-99.99,,2013-07-09 10:22:00,
2013-07-09 04:27:00,45.0,42.0,30.58,NNE,20,8.0,8.0,91,-99.99,,,-99.99,,2013-07-09 10:27:00,
2013-07-09 04:37:00,45.0,42.0,30.58,NNW,330,7.0,8.0,91,-99.99,,,-99.99,,2013-07-09 10:37:00,
2013-07-09 04:47:00,45.0,42.0,30.58,NNW,340,8.0,9.0,91,-99.99,,,-99.99,,2013-07-09 10:47:00,
2013-07-09 04:52:00,45.0,42.0,30.59,North,350,5.0,9.0,92,-99.99,,,-99.99,,2013-07-09 10:52:00,
2013-07-09 04:57:00,45.0,42.0,30.59,North,10,6.0,9.0,91,-99.99,,,-99.99,,2013-07-09 10:57:00,
2013-07-09 05:07:00,44.0,42.0,30.58,NW,310,7.0,8.0,92,-99.99,,,-99.99,,2013-07-09 11:07:00,
2013-07-09 05:17:00,44.0,42.0,30.58,NE,40,3.0,8.0,92,-99.99,,,-99.99,,2013-07-09 11:17:00,
2013-07-09 05:27:00,44.0,42.0,30.59,NNE,30,5.0,6.0,92,-99.99,,,-99.99,,2013-07-09 11:27:00,
2013-07-09 05:32:00,44.0,42.0,30.59,NE,40,3.0,6.0,93,-99.99,,,-99.99,,2013-07-09 11:32:00,
2013-07-09 05:37:00,44.0,42.0,30.59,NNW,340,6.0,6.0,93,-99.99,,,-99.99,,2013-07-09 11:37:00,
2013-07-09 05:42:00,44.0,42.0,30.59,NNW,330,6.0,7.0,93,-99.99,,,-99.99,,2013-07-09 11:42:00,
2013-07-09 05:47:00,44.0,43.0,30.59,North,350,8.0,8.0,93,-99.99,,,-99.99,,2013-07-09 11:47:00,
2013-07-09 05:57:00,45.0,43.0,30.59,NNW,330,6.0,6.0,93,-99.99,,,-99.99,,2013-07-09 11:57:00,
2013-07-09 06:07:00,45.0,43.0,30.59,NNW,330,9.0,9.0,93,-99.99,,,-99.99,,2013-07-09 12:07:00,
2013-07-09 06:17:00,45.0,43.0,30.59,NW,320,6.0,8.0,92,-99.99,,,-99.99,,2013-07-09 12:17:00,
2013-07-09 06:27:00,45.0,43.0,30.59,NNE,30,3.0,7.0,92,-99.99,,,-99.99,,2013-07-09 12:27:00,
2013-07-09 06:32:00,45.0,43.0,30.60,North,0,0.0,5.0,92,-99.99,,,-99.99,,2013-07-09 12:32:00,
2013-07-09 06:37:00,45.0,43.0,30.60,West,260,0.0,3.0,92,-99.99,,,-99.99,,2013-07-09 12:37:00,
2013-07-09 06:42:00,45.0,43.0,30.60,NNW,340,5.0,6.0,92,-99.99,,,-99.99,,2013-07-09 12:42:00,
2013-07-09 06:52:00,46.0,43.0,30.60,North,0,5.0,8.0,91,-99.99,,,-99.99,,2013-07-09 12:52:00,
2013-07-09 06:57:00,46.0,44.0,30.61,North,0,4.0,6.0,91,-99.99,,,-99.99,,2013-07-09 12:57:00,
2013-07-09 07:07:00,47.0,45.0,30.61,North,0,0.0,6.0,91,-99.99,,,-99.99,,2013-07-09 13:07:00,
2013-07-09 07:12:00,48.0,45.0,30.61,NNW,340,4.0,7.0,91,-99.99,,,-99.99,,2013-07-09 13:12:00,
2013-07-09 07:17:00,48.0,45.0,30.61,NNW,330,8.0,8.0,90,-99.99,,,-99.99,,2013-07-09 13:17:00,
2013-07-09 07:22:00,48.0,45.0,30.61,NNE,30,2.0,7.0,89,-99.99,,,-99.99,,2013-07-09 13:22:00,
2013-07-09 07:32:00,49.0,46.0,30.61,NW,320,0.0,5.0,90,-99.99,,,-99.99,,2013-07-09 13:32:00,
2013-07-09 07:42:00,50.0,47.0,30.62,NW,310,0.0,5.0,87,-99.99,,,-99.99,,2013-07-09 13:42:00,
2013-07-09 07:47:00,50.0,47.0,30.62,NW,310,3.0,4.0,87,-99.99,,,-99.99,,2013-07-09 13:47:00,
2013-07-09 07:52:00,51.0,47.0,30.62,NW,320,3.0,5.0,85,-99.99,,,-99.99,,2013-07-09 13:52:00,
2013-07-09 07:57:00,51.0,47.0,30.62,NW,310,3.0,5.0,83,-99.99,,,-99.99,,2013-07-09 13:57:00,
2013-07-09 08:07:00,52.0,46.0,30.62,NNW,330,0.0,5.0,80,-99.99,,,-99.99,,2013-07-09 14:07:00,
2013-07-09 08:12:00,53.0,46.0,30.63,NW,310,0.0,4.0,77,-99.99,,,-99.99,,2013-07-09 14:12:00,
2013-07-09 08:17:00,54.0,46.0,30.62,West,280,3.0,4.0,76,-99.99,,,-99.99,,2013-07-09 14:17:00,
2013-07-09 08:27:00,55.0,46.0,30.63,West,260,0.0,0.0,72,-99.99,,,-99.99,,2013-07-09 14:27:00,
2013-07-09 08:32:00,56.0,46.0,30.63,West,260,0.0,0.0,69,-99.99,,,-99.99,,2013-07-09 14:32:00,
2013-07-09 08:37:00,57.0,46.0,30.63,WNW,290,0.0,5.0,66,-99.99,,,-99.99,,2013-07-09 14:37:00,
2013-07-09 08:42:00,59.0,46.0,30.63,WNW,290,0.0,3.0,63,-99.99,,,-99.99,,2013-07-09 14:42:00,
2013-07-09 08:47:00,60.0,46.0,30.63,WNW,290,0.0,0.0,59,-99.99,,,-99.99,,2013-07-09 14:47:00,
2013-07-09 08:52:00,62.0,46.0,30.63,WNW,290,0.0,0.0,57,-99.99,,,-99.99,,2013-07-09 14:52:00,
2013-07-09 09:02:00,64.0,45.0,30.63,SW,230,0.0,4.0,50,-99.99,,,-99.99,,2013-07-09 15:02:00,
2013-07-09 09:12:00,66.0,44.0,30.64,SSE,160,3.0,0.0,45,-99.99,,,-99.99,,2013-07-09 15:12:00,
2013-07-09 09:17:00,67.0,45.0,30.63,SSE,160,0.0,3.0,45,-99.99,,,-99.99,,2013-07-09 15:17:00,
2013-07-09 09:22:00,68.0,45.0,30.63,SSE,160,0.0,0.0,43,-99.99,,,-99.99,,2013-07-09 15:22:00,
2013-07-09 09:27:00,69.0,44.0,30.63,SSE,160,0.0,0.0,41,-99.99,,,-99.99,,2013-07-09 15:27:00,
2013-07-09 09:32:00,70.0,45.0,30.63,SSE,160,0.0,0.0,41,-99.99,,,-99.99,,2013-07-09 15:32:00,
2013-07-09 09:42:00,71.0,44.0,30.63,West,260,0.0,3.0,38,-99.99,,,-99.99,,2013-07-09 15:42:00,
2013-07-09 09:47:00,72.0,45.0,30.63,ESE,120,0.0,3.0,39,-99.99,,,-99.99,,2013-07-09 15:47:00,
2013-07-09 09:57:00,73.0,46.0,30.63,ESE,120,0.0,0.0,38,-99.99,,,-99.99,,2013-07-09 15:57:00,
2013-07-09 10:02:00,74.0,47.0,30.63,SSE,150,0.0,4.0,39,-99.99,,,-99.99,,2013-07-09 16:02:00,
2013-07-09 10:12:00,74.0,49.0,30.63,South,170,4.0,4.0,41,-99.99,,,-99.99,,2013-07-09 16:12:00,
2013-07-09 10:17:00,75.0,49.0,30.63,South,190,5.0,6.0,39,-99.99,,,-99.99,,2013-07-09 16:17:00,
2013-07-09 10:22:00,76.0,48.0,30.63,ESE,120,0.0,5.0,38,-99.99,,,-99.99,,2013-07-09 16:22:00,
2013-07-09 10:27:00,76.0,47.0,30.63,South,170,5.0,7.0,36,-99.99,,,-99.99,,2013-07-09 16:27:00,
2013-07-09 10:32:00,76.0,48.0,30.63,ESE,120,5.0,9.0,38,-99.99,,,-99.99,,2013-07-09 16:32:00,
2013-07-09 10:42:00,75.0,47.0,30.63,South,190,5.0,9.0,37,-99.99,,,-99.99,,2013-07-09 16:42:00,
2013-07-09 10:47:00,76.0,50.0,30.63,South,180,10.0,10.0,40,-99.99,,,-99.99,,2013-07-09 16:47:00,
2013-07-09 10:57:00,78.0,46.0,30.63,SSE,160,6.0,9.0,33,-99.99,,,-99.99,,2013-07-09 16:57:00,
2013-07-09 11:07:00,78.0,48.0,30.63,South,170,7.0,8.0,35,-99.99,,,-99.99,,2013-07-09 17:07:00,
2013-07-09 11:17:00,79.0,49.0,30.63,South,170,9.0,10.0,36,-99.99,,,-99.99,,2013-07-09 17:17:00,
2013-07-09 11:27:00,79.0,44.0,30.63,East,90,3.0,8.0,30,-99.99,,,-99.99,,2013-07-09 17:27:00,
2013-07-09 11:32:00,78.0,40.0,30.63,East,80,4.0,8.0,26,-99.99,,,-99.99,,2013-07-09 17:32:00,
2013-07-09 11:37:00,78.0,43.0,30.62,SW,220,0.0,7.0,29,-99.99,,,-99.99,,2013-07-09 17:37:00,
2013-07-09 11:47:00,79.0,41.0,30.62,NNW,340,0.0,0.0,26,-99.99,,,-99.99,,2013-07-09 17:47:00,
2013-07-09 11:52:00,79.0,42.0,30.62,NNW,340,0.0,0.0,27,-99.99,,,-99.99,,2013-07-09 17:52:00,
2013-07-09 12:02:00,80.0,38.0,30.62,NE,50,0.0,8.0,22,-99.99,,,-99.99,,2013-07-09 18:02:00,
2013-07-09 12:12:00,80.0,32.0,30.62,West,260,10.0,15.0,18,-99.99,,,-99.99,,2013-07-09 18:12:00,
2013-07-09 12:17:00,79.0,32.0,30.62,WNW,290,16.0,16.0,18,-99.99,,,-99.99,,2013-07-09 18:17:00,
2013-07-09 12:22:00,78.0,32.0,30.62,North,0,7.0,21.0,19,-99.99,,,-99.99,,2013-07-09 18:22:00,
2013-07-09 12:27:00,79.0,31.0,30.62,WSW,250,13.0,16.0,17,-99.99,,,-99.99,,2013-07-09 18:27:00,
2013-07-09 12:37:00,79.0,31.0,30.62,West,260,5.0,16.0,17,-99.99,,,-99.99,,2013-07-09 18:37:00,
2013-07-09 12:47:00,80.0,31.0,30.61,WSW,250,4.0,16.0,17,-99.99,,,-99.99,,2013-07-09 18:47:00,
2013-07-09 12:52:00,80.0,36.0,30.61,NW,320,12.0,13.0,21,-99.99,,,-99.99,,2013-07-09 18:52:00,
2013-07-09 13:02:00,80.0,38.0,30.61,North,350,11.0,12.0,22,-99.99,,,-99.99,,2013-07-09 19:02:00,
2013-07-09 13:07:00,80.0,39.0,30.61,North,0,5.0,12.0,24,-99.99,,,-99.99,,2013-07-09 19:07:00,
2013-07-09 13:12:00,80.0,36.0,30.61,NNW,330,10.0,11.0,20,-99.99,,,-99.99,,2013-07-09 19:12:00,
2013-07-09 13:22:00,80.0,35.0,30.61,NNW,330,12.0,14.0,20,-99.99,,,-99.99,,2013-07-09 19:22:00,
2013-07-09 13:32:00,80.0,32.0,30.61,South,170,4.0,6.0,18,-99.99,,,-99.99,,2013-07-09 19:32:00,
2013-07-09 13:37:00,81.0,36.0,30.61,NNW,340,4.0,8.0,20,-99.99,,,-99.99,,2013-07-09 19:37:00,
2013-07-09 13:46:00,81.0,35.0,30.60,NNW,330,8.0,9.0,19,-99.99,,,-99.99,,2013-07-09 19:46:00,
2013-07-09 13:56:00,80.0,34.0,30.60,North,350,6.0,7.0,19,-99.99,,,-99.99,,2013-07-09 19:56:00,
2013-07-09 14:06:00,80.0,36.0,30.60,NNW,330,5.0,8.0,21,-99.99,,,-99.99,,2013-07-09 20:06:00,
2013-07-09 14:16:00,80.0,39.0,30.59,NW,320,3.0,12.0,23,-99.99,,,-99.99,,2013-07-09 20:16:00,
2013-07-09 14:21:00,80.0,36.0,30.59,North,10,6.0,12.0,20,-99.99,,,-99.99,,2013-07-09 20:21:00,
2013-07-09 14:31:00,82.0,33.0,30.58,East,90,0.0,5.0,17,-99.99,,,-99.99,,2013-07-09 20:31:00,
2013-07-09 14:36:00,82.0,33.0,30.59,North,0,3.0,9.0,18,-99.99,,,-99.99,,2013-07-09 20:36:00,
2013-07-09 14:41:00,82.0,32.0,30.58,NNE,20,0.0,11.0,16,-99.99,,,-99.99,,2013-07-09 20:41:00,
2013-07-09 14:51:00,82.0,33.0,30.58,North,350,4.0,7.0,17,-99.99,,,-99.99,,2013-07-09 20:51:00,
2013-07-09 15:01:00,81.0,33.0,30.58,NE,40,7.0,8.0,18,-99.99,,,-99.99,,2013-07-09 21:01:00,
2013-07-09 15:06:00,80.0,32.0,30.58,NNE,30,0.0,7.0,18,-99.99,,,-99.99,,2013-07-09 21:06:00,
2013-07-09 15:16:00,80.0,34.0,30.58,NNE,20,5.0,8.0,18,-99.99,,,-99.99,,2013-07-09 21:16:00,
2013-07-09 15:21:00,80.0,33.0,30.58,WNW,290,3.0,10.0,18,-99.99,,,-99.99,,2013-07-09 21:21:00,
2013-07-09 15:31:00,81.0,32.0,30.58,NNE,30,4.0,12.0,17,-99.99,,,-99.99,,2013-07-09 21:31:00,
2013-07-09 15:41:00,81.0,32.0,30.57,NNE,20,3.0,11.0,17,-99.99,,,-99.99,,2013-07-09 21:41:00,
2013-07-09 15:46:00,81.0,35.0,30.57,West,280,9.0,9.0,19,-99.99,,,-99.99,,2013-07-09 21:46:00,
2013-07-09 15:56:00,82.0,35.0,30.56,WSW,250,4.0,8.0,19,-99.99,,,-99.99,,2013-07-09 21:56:00,
2013-07-09 16:01:00,82.0,32.0,30.56,WNW,300,3.0,11.0,17,-99.99,,,-99.99,,2013-07-09 22:01:00,
2013-07-09 16:11:00,82.0,34.0,30.55,WSW,250,8.0,10.0,18,-99.99,,,-99.99,,2013-07-09 22:11:00,
2013-07-09 16:21:00,82.0,35.0,30.55,North,10,3.0,14.0,18,-99.99,,,-99.99,,2013-07-09 22:21:00,
2013-07-09 16:26:00,82.0,34.0,30.55,North,10,4.0,11.0,18,-99.99,,,-99.99,,2013-07-09 22:26:00,
2013-07-09 16:31:00,82.0,35.0,30.55,North,0,4.0,9.0,18,-99.99,,,-99.99,,2013-07-09 22:31:00,
2013-07-09 16:41:00,81.0,35.0,30.55,North,0,5.0,12.0,19,-99.99,,,-99.99,,2013-07-09 22:41:00,
2013-07-09 16:51:00,80.0,39.0,30.55,WNW,300,7.0,11.0,22,-99.99,,,-99.99,,2013-07-09 22:51:00,
2013-07-09 16:56:00,80.0,38.0,30.55,West,270,5.0,11.0,22,-99.99,,,-99.99,,2013-07-09 22:56:00,
2013-07-09 17:06:00,80.0,36.0,30.54,North,10,5.0,12.0,21,-99.99,,,-99.99,,2013-07-09 23:06:00,
2013-07-09 17:16:00,80.0,37.0,30.54,NW,320,5.0,11.0,21,-99.99,,,-99.99,,2013-07-09 23:16:00,
2013-07-09 17:26:00,80.0,35.0,30.54,NNW,330,11.0,11.0,20,-99.99,,,-99.99,,2013-07-09 23:26:00,
2013-07-09 17:31:00,80.0,36.0,30.54,NNW,340,9.0,12.0,21,-99.99,,,-99.99,,2013-07-09 23:31:00,
2013-07-09 17:36:00,81.0,38.0,30.54,WNW,290,11.0,11.0,22,-99.99,,,-99.99,,2013-07-09 23:36:00,
2013-07-09 17:41:00,81.0,37.0,30.53,NE,40,0.0,10.0,21,-99.99,,,-99.99,,2013-07-09 23:41:00,
2013-07-09 17:46:00,81.0,37.0,30.54,NW,310,3.0,11.0,21,-99.99,,,-99.99,,2013-07-09 23:46:00,
2013-07-09 17:56:00,81.0,37.0,30.53,North,350,7.0,8.0,21,-99.99,,,-99.99,,2013-07-09 23:56:00,
2013-07-09 18:01:00,81.0,36.0,30.53,WNW,290,7.0,10.0,20,-99.99,,,-99.99,,2013-07-10 00:01:00,
2013-07-09 18:11:00,81.0,36.0,30.53,NW,310,5.0,9.0,20,-99.99,,,-99.99,,2013-07-10 00:11:00,
2013-07-09 18:16:00,81.0,36.0,30.53,West,270,0.0,8.0,20,-99.99,,,-99.99,,2013-07-10 00:16:00,
2013-07-09 18:26:00,81.0,33.0,30.53,NNE,20,0.0,4.0,18,-99.99,,,-99.99,,2013-07-10 00:26:00,
2013-07-09 18:36:00,81.0,36.0,30.53,North,0,5.0,5.0,20,-99.99,,,-99.99,,2013-07-10 00:36:00,
2013-07-09 18:41:00,81.0,35.0,30.53,North,0,9.0,9.0,19,-99.99,,,-99.99,,2013-07-10 00:41:00,
2013-07-09 18:51:00,80.0,38.0,30.53,NNW,330,5.0,8.0,22,-99.99,,,-99.99,,2013-07-10 00:51:00,
2013-07-09 18:56:00,80.0,38.0,30.53,NW,320,3.0,11.0,23,-99.99,,,-99.99,,2013-07-10 00:56:00,
2013-07-09 19:06:00,80.0,39.0,30.53,WNW,300,4.0,10.0,23,-99.99,,,-99.99,,2013-07-10 01:06:00,
2013-07-09 19:16:00,79.0,43.0,30.53,WNW,300,8.0,8.0,28,-99.99,,,-99.99,,2013-07-10 01:16:00,
2013-07-09 19:21:00,78.0,43.0,30.53,NW,310,8.0,8.0,29,-99.99,,,-99.99,,2013-07-10 01:21:00,
2013-07-09 19:31:00,77.0,43.0,30.53,NNW,330,4.0,9.0,30,-99.99,,,-99.99,,2013-07-10 01:31:00,
2013-07-09 19:36:00,76.0,43.0,30.53,NW,310,5.0,6.0,31,-99.99,,,-99.99,,2013-07-10 01:36:00,
2013-07-09 19:41:00,76.0,43.0,30.53,NW,320,5.0,6.0,31,-99.99,,,-99.99,,2013-07-10 01:41:00,
2013-07-09 19:46:00,75.0,42.0,30.53,NNW,330,8.0,8.0,31,-99.99,,,-99.99,,2013-07-10 01:46:00,
2013-07-09 19:56:00,75.0,41.0,30.53,North,350,3.0,8.0,30,-99.99,,,-99.99,,2013-07-10 01:56:00,
2013-07-09 20:06:00,74.0,40.0,30.53,NNW,330,6.0,6.0,30,-99.99,,,-99.99,,2013-07-10 02:06:00,
2013-07-09 20:11:00,73.0,41.0,30.53,NW,310,6.0,6.0,32,-99.99,,,-99.99,,2013-07-10 02:11:00,
2013-07-09 20:21:00,72.0,41.0,30.53,NW,320,6.0,7.0,33,-99.99,,,-99.99,,2013-07-10 02:21:00,
2013-07-09 20:31:00,71.0,44.0,30.53,North,10,6.0,7.0,38,-99.99,,,-99.99,,2013-07-10 02:31:00,
2013-07-09 20:36:00,70.0,44.0,30.53,NW,320,6.0,6.0,40,-99.99,,,-99.99,,2013-07-10 02:36:00,
2013-07-09 20:45:00,68.0,42.0,30.53,NW,320,6.0,8.0,38,-99.99,,,-99.99,,2013-07-10 02:45:00,
2013-07-09 20:51:00,68.0,43.0,30.54,NW,320,4.0,8.0,41,-99.99,,,-99.99,,2013-07-10 02:51:00,
2013-07-09 21:01:00,67.0,43.0,30.54,NE,40,0.0,6.0,41,-99.99,,,-99.99,,2013-07-10 03:01:00,
2013-07-09 21:06:00,67.0,42.0,30.54,NE,40,0.0,5.0,41,-99.99,,,-99.99,,2013-07-10 03:06:00,
2013-07-09 21:16:00,67.0,42.0,30.55,NE,40,0.0,0.0,40,-99.99,,,-99.99,,2013-07-10 03:16:00,
2013-07-09 21:21:00,67.0,45.0,30.55,West,280,6.0,0.0,45,-99.99,,,-99.99,,2013-07-10 03:21:00,
2013-07-09 21:31:00,65.0,43.0,30.55,North,10,3.0,5.0,44,-99.99,,,-99.99,,2013-07-10 03:31:00,
2013-07-09 21:41:00,65.0,43.0,30.55,NE,40,6.0,6.0,45,-99.99,,,-99.99,,2013-07-10 03:41:00,
2013-07-09 21:46:00,64.0,43.0,30.55,South,190,0.0,7.0,46,-99.99,,,-99.99,,2013-07-10 03:46:00,
2013-07-09 21:51:00,64.0,43.0,30.55,NNW,340,10.0,10.0,46,-99.99,,,-99.99,,2013-07-10 03:51:00,
2013-07-09 22:01:00,63.0,43.0,30.55,WNW,290,8.0,8.0,48,-99.99,,,-99.99,,2013-07-10 04:01:00,
2013-07-09 22:10:00,62.0,43.0,30.56,West,280,9.0,9.0,49,-99.99,,,-99.99,,2013-07-10 04:10:00,
2013-07-09 22:16:00,61.0,44.0,30.56,West,270,3.0,9.0,53,-99.99,,,-99.99,,2013-07-10 04:16:00,
2013-07-09 22:21:00,61.0,44.0,30.56,NW,310,9.0,11.0,55,-99.99,,,-99.99,,2013-07-10 04:21:00,
2013-07-09 22:26:00,60.0,44.0,30.56,West,280,9.0,10.0,56,-99.99,,,-99.99,,2013-07-10 04:26:00,
2013-07-09 22:30:00,60.0,43.0,30.56,NW,320,9.0,10.0,54,-99.99,,,-99.99,,2013-07-10 04:30:00,
2013-07-09 22:36:00,60.0,42.0,30.56,WNW,300,10.0,10.0,53,-99.99,,,-99.99,,2013-07-10 04:36:00,
2013-07-09 22:46:00,61.0,43.0,30.57,WNW,300,7.0,12.0,51,-99.99,,,-99.99,,2013-07-10 04:46:00,
2013-07-09 22:56:00,60.0,42.0,30.56,WNW,300,9.0,10.0,51,-99.99,,,-99.99,,2013-07-10 04:56:00,
2013-07-09 23:01:00,60.0,43.0,30.57,NW,320,8.0,12.0,53,-99.99,,,-99.99,,2013-07-10 05:01:00,
2013-07-09 23:06:00,60.0,43.0,30.56,NNW,330,9.0,9.0,54,-99.99,,,-99.99,,2013-07-10 05:06:00,
2013-07-09 23:11:00,60.0,43.0,30.56,NNW,330,8.0,11.0,54,-99.99,,,-99.99,,2013-07-10 05:11:00,
2013-07-09 23:20:00,59.0,44.0,30.57,NNE,20,4.0,10.0,56,-99.99,,,-99.99,,2013-07-10 05:20:00,
2013-07-09 23:26:00,59.0,43.0,30.57,NNW,340,7.0,12.0,54,-99.99,,,-99.99,,2013-07-10 05:26:00,
2013-07-09 23:35:00,59.0,44.0,30.57,West,280,10.0,12.0,57,-99.99,,,-99.99,,2013-07-10 05:35:00,
2013-07-09 23:41:00,59.0,44.0,30.57,NNW,340,5.0,10.0,58,-99.99,,,-99.99,,2013-07-10 05:41:00,
2013-07-09 23:51:00,58.0,44.0,30.57,NNW,340,9.0,9.0,58,-99.99,,,-99.99,,2013-07-10 05:51:00,